Theta_e
328 328 327 328 329 332 334 337 338 340 342 341 345 348 345 344 343 340 343 342 343 344 345 346 347 347 348 349 350 350 351 351 354 353 354 350 352 350 345 352 352 353 350 349
327 327 327 328 330 331 333 336 339 340 343 345 342 350 347 348 346 342 341 342 342 343 344 346 347 348 348 349 350 351 351 352 351 353 353 351 348 352 351 351 347 348 347 349
327 327 327 327 329 332 333 335 339 341 341 341 341 342 343 346 346 345 344 342 341 341 342 346 347 348 349 349 350 351 352 352 353 351 352 350 354 352 353 352 352 348 347 347
328 328 327 327 328 331 333 335 336 338 342 344 343 345 348 346 349 346 344 344 343 342 342 343 347 349 349 349 350 353 353 352 352 350 357 349 352 352 346 346 347 349 351 349
328 327 327 327 327 331 333 335 335 336 339 345 347 345 347 347 349 349 346 344 344 344 343 343 345 347 349 350 352 354 354 354 351 351 355 356 352 349 349 348 347 347 348 346
328 329 328 328 328 329 332 333 335 336 338 344 345 345 348 349 346 346 346 345 346 345 345 343 343 345 348 350 352 353 355 355 354 354 350 354 357 350 349 349 348 347 346 346
329 328 329 328 328 328 329 331 336 338 342 341 343 349 349 347 346 345 344 343 346 346 345 345 344 345 349 350 351 354 356 356 356 354 355 349 355 355 349 350 350 349 344 348
330 330 328 329 328 328 328 330 336 340 341 340 340 342 348 346 344 342 341 342 344 346 347 346 346 345 348 349 350 353 357 356 355 354 354 351 347 354 348 352 354 350 347 347
332 331 331 329 329 328 328 329 331 333 337 340 340 340 341 345 343 345 343 342 342 346 347 347 347 347 347 349 349 351 354 356 355 354 351 351 347 344 347 348 353 351 345 346
330 332 331 331 330 328 328 330 330 331 338 343 341 343 345 348 345 345 344 342 340 344 346 348 346 347 348 349 350 350 351 353 355 354 351 347 343 338 341 347 348 349 351 344
328 332 331 332 331 330 328 328 329 330 334 339 342 343 343 346 348 346 344 341 340 338 344 347 347 345 346 347 350 350 352 352 355 355 352 345 343 339 340 345 348 348 347 347
329 329 333 331 332 331 329 329 329 331 338 336 339 342 339 341 344 346 343 340 339 338 338 342 347 346 346 345 348 350 353 354 354 354 353 345 343 339 339 340 344 343 342 345
332 330 333 331 331 332 331 330 328 328 330 339 339 339 339 342 340 339 341 339 338 338 339 340 344 347 347 346 346 349 350 353 357 357 353 352 345 343 338 334 335 339 338 340
333 330 333 333 334 332 334 331 330 329 330 333 337 340 339 342 343 343 340 337 338 337 337 338 342 347 346 347 346 347 349 350 354 359 357 349 344 338 337 340 335 336 339 338
330 335 334 331 330 333 332 331 330 331 332 333 333 338 340 339 343 342 338 338 337 337 340 339 339 338 348 348 347 347 349 351 353 357 358 356 348 346 349 351 349 344 344 342
331 333 333 333 330 331 333 331 331 330 330 331 331 333 336 338 338 340 336 337 338 337 337 342 340 338 340 351 349 349 350 351 351 354 355 356 357 358 356 355 354 354 353 351
331 331 336 335 332 332 332 333 333 330 330 329 331 333 336 336 336 339 341 337 340 338 335 335 342 341 343 346 352 351 350 353 352 354 355 356 356 358 359 358 356 355 355 353
333 333 333 336 336 336 334 333 332 332 332 331 332 333 333 333 332 331 331 332 335 338 336 336 335 343 346 347 355 356 354 354 356 355 358 359 359 360 361 359 358 357 356 355
330 333 332 336 334 333 332 333 333 332 336 334 332 335 334 332 331 332 330 330 332 332 336 336 336 335 343 349 352 356 359 357 356 358 358 361 361 364 363 360 359 359 358 357
327 335 335 333 335 337 337 333 336 338 338 338 340 338 337 338 339 340 331 330 330 330 332 336 334 333 334 346 353 355 357 361 360 360 358 363 364 365 362 360 360 360 357 355
329 333 332 333 334 332 339 338 337 341 342 344 343 342 340 341 342 341 339 337 329 331 329 330 336 339 347 347 354 357 360 362 362 363 363 362 363 362 361 361 359 353 353 353
329 330 332 336 337 338 338 337 338 343 343 342 342 342 342 341 340 339 338 336 341 340 336 337 340 347 352 351 354 360 362 363 362 364 363 364 362 359 359 356 352 352 351 349
327 327 331 335 336 343 340 342 341 341 342 341 341 339 340 339 339 337 345 345 344 346 346 344 346 351 356 357 357 361 362 363 362 362 361 361 360 360 356 354 350 351 349 347
329 330 327 333 340 341 339 338 338 339 340 344 344 344 344 341 346 347 347 347 347 350 352 353 354 356 358 359 361 361 360 358 358 359 361 360 358 356 355 354 350 349 347 345
334 333 335 332 342 338 336 337 336 339 342 343 342 346 345 348 348 348 348 348 349 352 353 354 354 356 359 359 360 361 359 359 361 360 357 355 353 352 350 347 346 345 343 343
327 333 338 344 336 338 337 335 336 335 335 337 338 339 339 338 338 340 345 344 344 347 350 352 354 355 357 357 356 356 357 357 354 356 354 350 349 347 346 345 344 343 343 342
Wind_Speed
25 15 21 25 25 23 23 20 24 12 7 17 18 19 21 36 30 24 27 26 28 28 28 29 28 28 27 27 28 29 27 27 21 22 21 21 21 20 18 13 11 10 13 13
19 24 25 23 26 26 27 27 24 15 24 24 17 27 29 28 23 25 27 28 27 28 29 30 30 29 30 30 31 30 31 30 31 24 21 15 11 11 13 10 15 16 13 11
24 23 24 25 25 27 28 27 22 16 20 22 18 19 21 22 24 25 25 30 29 30 31 34 32 32 32 34 33 34 33 32 30 26 20 21 18 15 9 11 13 13 11 12
24 25 26 26 29 28 26 26 26 22 17 12 16 13 12 16 22 21 26 26 33 33 33 33 35 35 34 34 35 33 32 31 31 28 23 19 19 13 12 11 12 16 8 4
24 24 27 27 30 30 26 26 26 25 21 16 22 8 15 21 18 24 21 29 28 34 33 34 37 37 35 34 35 35 32 31 31 29 30 23 20 15 15 13 16 11 11 13
24 27 27 25 25 27 25 24 25 22 19 15 20 14 21 20 24 22 24 31 31 29 35 36 35 37 40 37 37 38 37 35 31 31 30 29 21 22 17 15 17 17 21 16
25 27 25 25 24 26 28 25 15 18 17 17 22 23 15 19 23 21 10 26 34 33 32 37 37 39 43 42 40 39 41 38 35 33 31 30 28 24 24 20 20 14 14 14
22 21 28 21 28 24 25 25 16 20 17 19 23 21 15 24 22 20 35 55 38 36 32 35 39 39 42 45 43 41 42 41 37 34 37 31 32 30 30 26 20 21 18 18
21 24 21 31 23 26 27 25 26 26 23 17 18 23 23 18 19 24 32 14 19 39 37 37 38 40 38 43 46 46 42 41 40 36 36 36 32 38 34 33 25 19 20 18
25 19 24 25 26 28 29 19 24 20 26 25 21 21 12 19 20 22 18 27 22 30 34 35 35 38 39 39 44 45 46 43 42 40 37 38 37 36 38 33 31 29 23 21
29 23 20 25 28 27 20 23 24 22 20 17 17 16 16 16 24 22 20 28 31 24 27 36 38 38 40 38 40 44 45 45 44 42 39 39 40 38 36 36 34 34 31 29
27 19 20 26 26 29 28 28 28 17 22 18 18 16 13 14 14 20 17 22 24 21 25 30 37 39 41 43 41 44 43 45 46 45 42 41 41 40 41 40 39 39 36 35
22 23 17 23 24 25 31 28 26 26 22 20 18 17 19 8 12 24 17 24 31 33 25 21 33 40 43 45 44 44 46 46 44 45 44 43 44 43 43 43 42 42 41 40
25 23 26 19 21 18 24 29 28 26 18 21 20 20 25 12 20 16 17 22 13 8 13 15 16 37 43 48 49 48 47 46 46 44 44 45 46 46 45 43 43 41 43 42
16 17 22 28 30 26 27 29 28 26 26 22 22 21 23 24 12 16 16 10 11 12 16 19 15 14 40 46 51 51 47 47 44 45 45 46 46 46 45 44 43 41 41 43
19 16 18 25 28 29 27 27 28 30 29 28 24 24 19 18 24 17 28 26 20 21 15 17 19 18 21 36 46 53 49 48 46 46 48 43 42 44 44 43 41 40 39 43
20 16 16 20 25 24 26 28 24 24 25 22 20 22 15 16 15 13 14 17 23 30 25 25 24 25 26 25 39 48 53 46 47 46 47 46 43 44 44 40 38 39 40 40
20 19 14 15 17 23 17 20 25 22 18 24 23 18 17 18 24 27 26 22 21 17 24 20 19 20 25 27 32 37 45 47 44 47 43 44 45 46 43 38 37 36 39 40
17 16 14 14 17 17 21 20 18 17 22 19 18 16 17 25 27 27 31 31 26 29 26 29 25 30 23 25 33 37 37 46 47 45 46 43 43 43 41 37 36 34 33 35
23 14 15 16 20 25 17 21 9 4 9 7 8 6 8 10 8 8 31 31 29 29 27 23 27 28 35 33 35 38 43 41 46 46 48 38 37 37 38 36 33 31 31 28
10 11 15 14 14 18 1 13 9 11 6 5 6 6 8 9 12 21 28 31 31 29 33 28 25 28 23 37 37 40 41 40 40 37 37 36 37 37 34 31 29 29 27 25
9 8 12 12 15 12 16 11 5 1 4 4 4 6 9 15 20 21 23 24 12 12 18 20 17 10 22 34 37 40 38 34 33 32 32 33 34 34 35 30 26 23 21 22
14 13 10 8 8 13 3 14 11 8 5 4 2 7 8 13 22 22 3 3 3 1 1 4 10 11 17 25 30 36 32 31 32 31 31 31 31 28 25 24 24 22 21 18
13 12 15 9 2 11 17 14 12 9 9 13 13 11 11 6 5 12 8 5 5 10 13 10 17 19 17 20 24 27 28 30 30 31 32 32 29 27 22 19 20 19 19 17
5 16 11 17 13 14 13 14 13 17 18 19 23 22 22 23 23 18 15 19 17 17 17 16 18 18 17 20 25 27 31 32 33 30 29 27 24 22 22 19 15 15 15 14
5 6 5 1 12 11 19 22 24 28 31 25 23 23 22 21 25 27 26 24 22 24 22 20 19 18 17 18 19 22 26 29 30 27 24 21 23 19 17 20 18 16 14 14
Wind_Direction
205 213 218 217 222 233 245 238 230 203 58 207 158 156 174 240 222 192 183 189 190 195 195 195 196 196 197 199 200 205 201 202 201 201 208 212 219 233 234 219 246 243 250 272
212 219 221 220 218 229 244 254 243 190 173 226 194 177 175 203 189 191 188 188 196 194 195 196 194 200 198 200 204 208 207 206 210 209 215 226 217 240 251 234 227 250 262 243
222 214 222 218 218 220 234 244 250 249 195 195 207 207 201 177 184 194 200 190 196 198 198 191 196 199 200 201 205 210 212 207 213 208 219 214 219 218 202 229 230 274 264 254
222 233 206 222 217 220 227 232 250 255 243 184 251 226 200 214 185 191 190 206 194 196 200 201 195 198 204 203 205 212 216 214 218 207 208 211 221 205 236 226 260 244 238 182
225 218 228 210 223 219 228 230 238 254 249 176 195 251 264 209 188 187 193 200 208 196 199 204 199 200 202 205 202 205 216 216 217 214 203 204 209 213 211 223 221 211 219 220
236 224 227 226 214 231 228 238 245 245 253 220 223 207 253 187 181 251 189 201 201 206 196 200 204 199 199 204 203 204 211 218 220 215 211 204 210 209 213 208 228 234 239 217
222 237 228 225 224 212 231 226 231 235 235 242 212 196 211 191 200 213 227 278 200 200 198 192 197 198 195 198 202 202 207 216 221 214 217 209 203 211 208 205 221 225 209 230
223 221 228 200 223 220 217 227 227 228 229 235 237 247 203 201 195 178 186 216 195 192 194 193 197 199 198 197 199 201 207 213 218 218 214 215 209 212 211 209 211 218 210 223
221 229 216 227 210 227 214 224 230 239 240 247 238 223 234 182 217 192 206 242 220 181 189 192 197 198 199 198 199 200 205 213 218 221 217 217 216 213 214 213 202 212 207 216
237 250 218 209 225 216 227 219 221 233 239 241 239 251 226 191 140 228 188 201 230 187 190 188 195 197 198 199 201 202 204 213 218 221 223 218 222 218 218 216 215 215 210 211
226 244 247 207 202 218 210 228 236 229 239 246 245 244 236 194 181 191 198 202 228 224 190 188 191 196 196 198 199 201 205 209 216 222 223 221 223 225 221 218 217 224 216 211
214 226 240 242 215 208 222 212 230 238 224 237 256 246 235 236 225 188 202 215 219 223 226 200 189 189 190 193 197 199 201 203 215 219 221 221 223 226 228 223 223 225 230 222
206 218 231 240 245 214 210 223 221 235 246 244 237 246 260 156 198 274 205 209 213 222 221 207 190 185 190 193 196 198 202 206 208 213 218 219 223 227 230 232 227 229 233 233
208 219 220 234 233 227 218 215 222 229 230 239 244 231 255 202 182 221 184 237 210 185 210 183 185 186 202 195 197 199 201 204 207 209 213 219 223 227 231 233 235 231 233 237
212 234 227 220 247 228 236 216 217 224 242 240 237 240 223 253 228 194 227 209 229 232 186 180 195 217 193 197 199 198 200 200 205 207 214 218 223 227 229 230 233 235 233 239
216 233 246 233 223 241 241 228 220 221 227 245 253 252 249 243 253 248 182 230 211 216 222 196 203 211 222 203 206 202 198 203 200 209 215 220 221 224 227 228 227 230 229 234
205 220 228 238 232 235 238 239 237 219 220 231 241 251 264 258 262 277 246 235 220 206 212 232 203 221 217 214 212 205 201 201 202 209 214 216 220 223 225 226 227 226 228 237
196 212 225 235 230 236 239 228 238 252 240 219 223 235 251 264 270 272 271 279 279 238 217 223 239 221 220 207 202 202 202 198 205 206 213 210 215 219 219 223 226 229 232 234
220 192 222 230 228 240 245 237 231 236 245 252 262 256 237 227 241 256 260 260 256 253 265 232 237 248 235 209 202 203 201 201 203 208 208 209 212 211 214 221 228 232 230 235
225 203 218 215 228 226 219 227 189 166 246 325 359 340 323 341 299 281 237 253 257 257 256 247 238 242 259 216 198 203 202 203 202 206 206 203 201 206 217 225 223 226 231 235
229 209 210 219 226 237 312 156 133 212 183 77 22 348 325 293 283 304 308 311 242 262 248 253 241 228 230 200 192 198 195 199 199 201 195 196 197 205 217 221 221 225 223 228
220 224 224 224 211 224 163 153 202 56 110 81 26 330 317 300 294 284 281 281 267 272 256 228 214 215 197 192 190 191 189 191 188 191 185 186 197 205 211 215 217 208 215 220
248 244 249 248 243 110 180 72 78 137 124 79 352 312 307 292 278 268 211 93 190 308 117 209 198 180 170 172 193 183 180 182 179 175 177 184 190 192 206 211 203 203 206 216
267 284 226 246 222 118 130 132 134 127 126 60 51 38 20 258 71 68 63 137 122 109 104 123 127 131 145 162 163 168 167 167 170 169 168 175 183 188 196 200 206 202 207 210
323 317 275 230 149 111 128 127 132 118 93 78 65 60 61 64 50 64 70 77 96 97 101 115 122 121 129 145 151 154 155 161 159 168 172 179 178 181 189 189 184 192 195 194
345 312 319 15 359 315 141 133 107 88 79 83 80 73 68 77 75 58 61 70 77 92 103 105 103 114 128 146 156 160 159 174 176 175 173 172 165 171 175 176 172 175 180 191